User: anonymous   Login
Location: Unspecified
(0.0000°N, 0.0000°E)
Time: 04:30:59
(UTC+00:00)
Language:

TBA - TO BE ASSIGNED - Orbit

View from above orbital plane
View from above orbital plane
View from above satellite
View from above satellite

Ground track
Ground track

The orbit is defined by the following mean orbital elements,

1 67472U          26145.41310392 +.00000000 +00000-0 +43488-3 0 00000
2 67472  43.0019 132.1317 0001358 267.2166  92.8530 15.27607904    08
Epoch (UTC): 25 May 2026 09:54:52
Eccentricity: 0.0001358
inclination: 43.0019°
perigee height: 482 km
apogee height: 484 km
right ascension of ascending node: 132.1317°
argument of perigee: 267.2166°
revolutions per day: 15.27607904
mean anomaly at epoch: 92.8530°

The dashed part of the orbit path shows where the satellite is in the earth's shadow,  

DLR